Change the Weather History Date:

Friday, February 17, 2012

  Actual Average Record
Temperature  
Mean Temperature 43 °F 32 °F  
Max Temperature 51 °F 42 °F 64 °F (1976)
Min Temperature 34 °F 23 °F 0 °F (1979)
Degree Days  
Heating Degree Days 22 32  
Month to date heating degree days 478 578  
Since 1 July heating degree days 3036 3703  
Cooling Degree Days 0 0  
Month to date cooling degree days 0 0  
Year to date cooling degree days 0 0  
Moisture  
Dew Point 33 °F    
Average Humidity 63    
Maximum Humidity 93    
Minimum Humidity 32    
Precipitation  
Precipitation T in 0.10 in 1.22 in (1910)
Month to date precipitation 0.31 1.49  
Year to date precipitation 2.69 4.54  
Sea Level Pressure  
Sea Level Pressure 30.02 in    
Wind  
Wind Speed 7 mph (WNW)    
Max Wind Speed 21 mph    
Max Gust Speed 26 mph    
Visibility 6 miles    
Events      
T = Trace of Precipitation, MM = Missing Value Source: NWS Daily Summary

Daily Weather History Graph

Daily Weather History Graph

Search for Another Location

Airport or City:

Trip Planner

Search our weather history database for the weather conditions in past years. The results will help you decide how hot, cold, wet, or windy it might be!

Date:

Astronomy

Feb. 17, 2012 Rise Set
Actual Time 6:55 AM EST 5:40 PM EST
Civil Twilight 6:27 AM EST 6:08 PM EST
Nautical Twilight 5:55 AM EST 6:40 PM EST
Astronomical Twilight 5:24 AM EST 7:12 PM EST
Moon 3:45 AM EST (2/17) 1:31 PM EST (2/17)
Length of Visible Light 11h 41m
Length of Day
10h 45m
Waning Crescent, 19% of the Moon is Illuminated
Feb 17
Waning Crescent
Feb 21
New
Feb 29
First Quarter
Mar 8
Full
Mar 14
Last Quarter

Hourly Weather History & Observations

Time (EST) Temp. Windchill Dew Point Humidity Pressure Visibility Wind Dir Wind Speed Gust Speed Precip Events Conditions
12:13 AM 41.0 °F - 39.2 °F 93% 30.00 in 2.5 mi Calm Calm - N/A   Overcast
12:30 AM 42.8 °F - 39.2 °F 87% 30.00 in 3.0 mi Calm Calm - N/A   Overcast
12:54 AM 42.1 °F - 39.9 °F 92% 30.01 in 4.0 mi Calm Calm - N/A   Overcast
1:54 AM 42.1 °F - 39.9 °F 92% 30.01 in 4.0 mi Calm Calm - N/A   Overcast
2:18 AM 41.0 °F - 39.2 °F 93% 29.99 in 2.0 mi Calm Calm - N/A   Overcast
2:54 AM 41.0 °F - 39.9 °F 96% 30.00 in 2.5 mi Calm Calm - N/A   Overcast
3:01 AM 42.8 °F - 39.2 °F 87% 29.97 in 3.0 mi Calm Calm - N/A   Overcast
3:12 AM 41.0 °F - 39.2 °F 93% 29.97 in 2.5 mi Calm Calm - N/A   Overcast
3:20 AM 41.0 °F - 39.2 °F 93% 29.98 in 3.0 mi Calm Calm - N/A   Overcast
3:34 AM 41.0 °F - 39.2 °F 93% 29.98 in 2.0 mi Calm Calm - 0.00 in   Overcast
3:41 AM 41.0 °F - 39.2 °F 93% 29.98 in 1.5 mi Calm Calm - 0.00 in   Overcast
3:51 AM 41.0 °F - 39.2 °F 93% 29.98 in 2.5 mi Calm Calm - 0.00 in   Overcast
3:54 AM 41.0 °F - 39.9 °F 96% 30.00 in 2.5 mi Calm Calm - 0.00 in   Overcast
4:54 AM 41.0 °F - 39.9 °F 96% 30.01 in 2.0 mi Calm Calm - N/A   Overcast
5:19 AM 41.0 °F - 39.2 °F 93% 30.00 in 2.5 mi Calm Calm - N/A   Overcast
5:54 AM 41.0 °F 39.0 °F 39.0 °F 93% 30.04 in 2.5 mi West 3.5 mph - N/A   Overcast
6:07 AM 41.0 °F 37.1 °F 39.2 °F 93% 30.02 in 3.0 mi West 5.8 mph - N/A   Mostly Cloudy
6:39 AM 41.0 °F 39.0 °F 39.2 °F 93% 30.02 in 4.0 mi West 3.5 mph - N/A   Mostly Cloudy
6:50 AM 41.0 °F 37.1 °F 37.4 °F 87% 30.03 in 4.0 mi WNW 5.8 mph - N/A   Mostly Cloudy
6:54 AM 41.0 °F 37.1 °F 37.9 °F 89% 30.05 in 4.0 mi WNW 5.8 mph - N/A   Mostly Cloudy
7:54 AM 39.9 °F 36.7 °F 37.0 °F 89% 30.08 in 5.0 mi SW 4.6 mph - N/A   Clear
8:54 AM 43.0 °F 38.8 °F 35.1 °F 74% 30.08 in 10.0 mi West 6.9 mph - N/A   Clear
9:54 AM 45.0 °F 37.6 °F 30.9 °F 58% 30.08 in 15.0 mi WNW 17.3 mph 21.9 mph N/A   Clear
10:54 AM 46.9 °F - 30.0 °F 52% 30.07 in 20.0 mi NW 18.4 mph - N/A   Partly Cloudy
11:54 AM 48.0 °F - 28.0 °F 46% 30.05 in 10.0 mi NW 16.1 mph 21.9 mph N/A   Partly Cloudy
12:54 PM 48.9 °F - 24.1 °F 38% 30.03 in 10.0 mi NW 16.1 mph 21.9 mph N/A   Clear
1:54 PM 50.0 °F - 21.9 °F 33% 30.02 in 10.0 mi NNW 11.5 mph 20.7 mph N/A   Scattered Clouds
2:54 PM 48.9 °F - 21.9 °F 35% 30.01 in 10.0 mi NW 16.1 mph - N/A   Partly Cloudy
3:54 PM 48.9 °F - 23.0 °F 36% 30.02 in 10.0 mi NW 17.3 mph - N/A   Partly Cloudy
4:54 PM 48.2 °F - 21.2 °F 34% 30.00 in 10.0 mi West 11.5 mph 20.7 mph N/A   Mostly Cloudy
5:54 PM 44.1 °F 41.5 °F 21.9 °F 42% 30.04 in 10.0 mi West 4.6 mph - N/A   Clear
6:54 PM 42.8 °F 41.1 °F 21.2 °F 42% 30.02 in 10.0 mi WSW 3.5 mph - N/A   Clear
7:54 PM 42.1 °F 40.2 °F 21.9 °F 45% 30.06 in 10.0 mi West 3.5 mph - N/A   Clear
8:54 PM 39.9 °F 35.8 °F 23.0 °F 51% 30.06 in 10.0 mi West 5.8 mph - N/A   Clear
9:54 PM 39.0 °F 36.8 °F 21.9 °F 50% 30.06 in 10.0 mi West 3.5 mph - N/A   Clear
10:54 PM 37.9 °F - 23.0 °F 55% 30.06 in 10.0 mi Calm Calm - N/A   Clear
11:54 PM 37.4 °F 32.1 °F 23.0 °F 56% 30.04 in 10.0 mi West 6.9 mph - N/A   Clear